Brookings, OR

3:34 PM PST on November 17, 2017 (GMT -0800)
Brookings State

Weather History for KBOK - June, 2014

Change the Weather History Date:

Tuesday, June 17, 2014

  Actual Average Record
Temperature  
Mean Temperature 59 °F -  
Max Temperature 68 °F 67 °F 91 °F (1945)
Min Temperature 50 °F 49 °F 40 °F (1991)
Degree Days  
Heating Degree Days 6    
Growing Degree Days 9 (Base 50)    
Moisture  
Dew Point 44 °F    
Average Humidity 54    
Maximum Humidity 69    
Minimum Humidity 37    
Precipitation  
Precipitation 0.00 in - - ()
Sea Level Pressure  
Sea Level Pressure 30.09 in    
Wind  
Wind Speed 7 mph (North)    
Max Wind Speed 17 mph    
Max Gust Speed 24 mph    
Visibility 10 miles    
Events      
Averages and records for this station are not official NWS values.
T = Trace of Precipitation, MM = Missing Value Source: NWS Daily Summary

Daily Weather History Graph

Daily Weather History Graph

Search for Another Location

Airport or City:

Trip Planner

Search our weather history database for the weather conditions in past years. The results will help you decide how hot, cold, wet, or windy it might be!

Date:

Astronomy

Jun. 17, 2014 Rise Set
Actual Time 5:40 AM PDT 8:55 PM PDT
Civil Twilight 5:06 AM PDT 9:29 PM PDT
Nautical Twilight 4:21 AM PDT 10:14 PM PDT
Astronomical Twilight 3:28 AM PDT 11:08 PM PDT
Moon No Moon Rise 11:06 AM PDT
Length of Visible Light 16h 23m
Length of Day
15h 14m
Waning Gibbous, 72% of the Moon is Illuminated
Jun 17
Waning Gibbous
Jun 19
Last Quarter
Jun 27
New
Jul 5
First Quarter
Jul 12
Full

Hourly Weather History & Observations

Time (PDT) Temp. Dew Point Humidity Pressure Visibility Wind Dir Wind Speed Gust Speed Precip Events Conditions
12:56 AM 52.0 °F 41.0 °F 66% 30.08 in 10.0 mi NNW 3.5 mph - N/A   Clear
1:56 AM 50.9 °F 41.0 °F 69% 30.08 in 10.0 mi NNW 6.9 mph - N/A   Clear
2:56 AM 52.0 °F 41.0 °F 66% 30.09 in 10.0 mi NNE 4.6 mph - N/A   Clear
3:56 AM 52.0 °F 41.0 °F 66% 30.09 in 10.0 mi NNE 4.6 mph - N/A   Clear
4:56 AM 52.9 °F 39.9 °F 61% 30.10 in 10.0 mi NNE 4.6 mph - N/A   Clear
5:56 AM 54.0 °F 39.9 °F 59% 30.11 in 10.0 mi NNE 5.8 mph - N/A   Clear
6:56 AM 54.0 °F 41.0 °F 62% 30.12 in 10.0 mi North 3.5 mph - N/A   Clear
7:56 AM 57.9 °F 41.0 °F 53% 30.12 in 10.0 mi North 4.6 mph - N/A   Clear
8:56 AM 61.0 °F 39.9 °F 46% 30.12 in 10.0 mi Variable 3.5 mph - N/A   Clear
9:56 AM 63.0 °F 39.9 °F 43% 30.13 in 10.0 mi Variable 4.6 mph - N/A   Mostly Cloudy
10:56 AM 64.9 °F 37.9 °F 37% 30.12 in 10.0 mi NNW 8.1 mph - N/A   Clear
11:56 AM 63.9 °F 46.9 °F 54% 30.12 in 10.0 mi NW 17.3 mph 21.9 mph N/A   Clear
12:56 PM 65.8 °F 45.9 °F 48% 30.11 in 10.0 mi NNW 16.1 mph 23.0 mph N/A   Clear
1:56 PM 65.8 °F 47.8 °F 52% 30.10 in 10.0 mi NNW 12.7 mph 23.0 mph N/A   Clear
2:56 PM 68.0 °F 47.8 °F 48% 30.09 in 10.0 mi NNW 16.1 mph 24.2 mph N/A   Clear
3:56 PM 68.0 °F 48.9 °F 50% 30.08 in 10.0 mi NNW 16.1 mph - N/A   Clear
4:56 PM 66.9 °F 48.9 °F 52% 30.07 in 10.0 mi NNW 17.3 mph 21.9 mph N/A   Clear
5:56 PM 68.0 °F 48.9 °F 50% 30.07 in 10.0 mi NNW 15.0 mph 20.7 mph N/A   Clear
6:56 PM 65.8 °F 48.9 °F 54% 30.06 in 10.0 mi NNW 13.8 mph 19.6 mph N/A   Clear
7:56 PM 63.9 °F 47.8 °F 56% 30.06 in 10.0 mi NW 6.9 mph - N/A   Clear
8:56 PM 68.0 °F 45.0 °F 43% 30.05 in 10.0 mi NNE 9.2 mph - N/A   Clear
11:56 PM 64.9 °F 41.9 °F 43% 30.08 in 10.0 mi NE 9.2 mph 19.6 mph N/A   Clear